Overview Statistics Trail Chart Weather Telemetry Raw packets
 

This is the latest recevied weather packets stored in our database for station/object K1RFS. If no packets are shown the sender has not sent any weather packets the latest 10 day(s).

<< 111 112 113 114 >>
Time Temp. Humidity Pressure Rain* Wind** Luminosity Snow
1787847867 30° C 27% 1006.9 hPa 0 mm - 34 W/m² -
1787847563 30° C 28% 1007.1 hPa 0 mm - 34 W/m² -
1787847258 29.44° C 28% 1006.9 hPa 0 mm - 33 W/m² -
1787846955 28.89° C 28% 1006.8 hPa 0 mm - 33 W/m² -
1787846654 28.89° C 33% 1007 hPa 0 mm - 33 W/m² -
1787846354 28.33° C 33% 1007.1 hPa 0 mm - 33 W/m² -
1787846045 28.33° C 33% 1007.1 hPa 0 mm - 32 W/m² -
1787845741 28.33° C 35% 1007.2 hPa 0 mm - 32 W/m² -
1787845441 27.78° C 36% 1006.9 hPa 0 mm - 32 W/m² -
1787845137 27.22° C 37% 1007.1 hPa 0 mm - 33 W/m² -
1787844833 27.22° C 36% 1007.1 hPa 0 mm - 31 W/m² -
1787844531 27.22° C 35% 1006.8 hPa 0 mm - 30 W/m² -
1787844227 26.67° C 37% 1007 hPa 0 mm - 29 W/m² -
1787843925 26.67° C 38% 1007 hPa 0 mm - 29 W/m² -
1787843621 26.11° C 36% 1007.1 hPa 0 mm - 28 W/m² -
1787843318 26.11° C 39% 1007.2 hPa 0 mm - 28 W/m² -
1787843013 26.11° C 39% 1007 hPa 0 mm - 27 W/m² -
1787842712 25.56° C 40% 1007.1 hPa 0 mm - 27 W/m² -
1787842408 25.56° C 40% 1007 hPa 0 mm - 27 W/m² -
1787842107 25° C 40% 1007 hPa 0 mm - 26 W/m² -
1787841802 24.44° C 41% 1007.1 hPa 0 mm - 26 W/m² -
1787841502 23.89° C 42% 1007.2 hPa 0 mm - 25 W/m² -

* Rain latest hour (hover to see other rain measurements)
** Current wind speed in m/s (hover to see current wind gust speed)